Time,TemperatureF,DewpointF,PressureIn,WindDirection,WindDirectionDegrees,WindSpeedMPH,WindSpeedGustMPH,Humidity,HourlyPrecipIn,Conditions,Clouds,dailyrainin,SoftwareType,DateUTC
2013-12-16 00:01:00,30.9,-0.8,31.03,SSW,192,9.0,12.0,25,-99.99,,,0.00,meteohub,2013-12-16 05:01:00,
2013-12-16 00:02:00,30.9,-2.6,31.03,SSW,192,8.0,13.0,23,-99.99,,,0.00,meteohub,2013-12-16 05:02:00,
2013-12-16 00:07:00,30.9,-2.6,31.03,SSE,167,10.0,13.0,23,-99.99,,,0.00,meteohub,2013-12-16 05:07:00,
2013-12-16 00:12:00,30.9,-2.6,31.03,South,187,9.0,13.0,23,-99.99,,,0.00,meteohub,2013-12-16 05:12:00,
2013-12-16 00:17:00,31.1,-2.4,31.03,SSW,199,12.0,13.0,23,-99.99,,,0.00,meteohub,2013-12-16 05:17:00,
2013-12-16 00:23:00,31.1,-5.3,31.03,SSW,206,11.0,15.0,20,-99.99,,,0.00,meteohub,2013-12-16 05:23:00,
2013-12-16 00:28:00,31.1,-5.3,31.03,SSW,200,15.0,15.0,20,-99.99,,,0.00,meteohub,2013-12-16 05:28:00,
2013-12-16 00:34:00,31.1,-5.3,31.03,SSW,193,8.0,15.0,20,-99.99,,,0.00,meteohub,2013-12-16 05:34:00,
2013-12-16 00:39:00,31.1,-5.3,31.03,SSW,202,11.0,15.0,20,-99.99,,,0.00,meteohub,2013-12-16 05:39:00,
2013-12-16 00:44:00,31.1,-5.3,31.03,SSW,200,11.0,15.0,20,-99.99,,,0.00,meteohub,2013-12-16 05:44:00,
2013-12-16 00:49:00,30.9,-7.6,31.03,SSW,212,8.0,16.0,18,-99.99,,,0.00,meteohub,2013-12-16 05:49:00,
2013-12-16 00:54:00,30.7,-5.6,31.03,SSW,198,6.0,16.0,20,-99.99,,,0.00,meteohub,2013-12-16 05:54:00,
2013-12-16 00:59:00,30.7,-5.6,31.03,South,191,8.0,16.0,20,-99.99,,,0.00,meteohub,2013-12-16 05:59:00,
2013-12-16 01:05:00,30.4,-6.0,31.03,SSW,194,8.0,13.0,20,-99.99,,,0.00,meteohub,2013-12-16 06:05:00,
2013-12-16 01:10:00,30.2,-6.0,31.03,SSW,196,6.0,12.0,20,-99.99,,,0.00,meteohub,2013-12-16 06:10:00,
2013-12-16 01:15:00,30.2,-6.0,31.03,SSW,203,5.0,11.0,20,-99.99,,,0.00,meteohub,2013-12-16 06:15:00,
2013-12-16 01:20:00,30.0,-6.2,31.03,SSW,206,4.0,8.0,20,-99.99,,,0.00,meteohub,2013-12-16 06:20:00,
2013-12-16 01:25:00,29.8,-6.3,31.03,SSW,196,4.0,8.0,20,-99.99,,,0.00,meteohub,2013-12-16 06:25:00,
2013-12-16 01:30:00,29.7,-6.5,31.03,SSW,204,4.0,8.0,20,-99.99,,,0.00,meteohub,2013-12-16 06:30:00,
2013-12-16 01:36:00,29.5,-3.8,31.03,SSW,211,4.0,6.0,23,-99.99,,,0.00,meteohub,2013-12-16 06:36:00,
2013-12-16 01:41:00,29.3,-4.0,31.03,SSW,211,0.0,6.0,23,-99.99,,,0.00,meteohub,2013-12-16 06:41:00,
2013-12-16 01:46:00,29.1,-7.1,31.03,SSW,211,0.0,5.0,20,-99.99,,,0.00,meteohub,2013-12-16 06:46:00,
2013-12-16 01:51:00,28.9,-4.2,31.03,SSW,211,3.0,5.0,23,-99.99,,,0.00,meteohub,2013-12-16 06:51:00,
2013-12-16 01:56:00,28.9,-4.2,31.03,SSW,210,0.0,4.0,23,-99.99,,,0.00,meteohub,2013-12-16 06:56:00,
2013-12-16 02:01:00,28.9,-4.2,31.03,SSW,211,0.0,3.0,23,-99.99,,,0.00,meteohub,2013-12-16 07:01:00,
2013-12-16 02:07:00,28.9,-4.2,31.03,SSW,210,4.0,4.0,23,-99.99,,,0.00,meteohub,2013-12-16 07:07:00,
2013-12-16 02:12:00,28.9,-4.2,31.03,SSW,210,3.0,4.0,23,-99.99,,,0.00,meteohub,2013-12-16 07:12:00,
2013-12-16 02:17:00,29.1,-4.0,31.03,SSW,210,4.0,4.0,23,-99.99,,,0.00,meteohub,2013-12-16 07:17:00,
2013-12-16 02:22:00,29.1,-4.0,31.03,SSW,197,4.0,4.0,23,-99.99,,,0.00,meteohub,2013-12-16 07:22:00,
2013-12-16 02:27:00,29.3,-4.0,31.03,SSW,195,4.0,4.0,23,-99.99,,,0.00,meteohub,2013-12-16 07:27:00,
2013-12-16 02:32:00,29.3,-4.0,31.03,SSW,196,3.0,5.0,23,-99.99,,,0.00,meteohub,2013-12-16 07:32:00,
2013-12-16 02:37:00,29.5,-2.0,31.03,SSW,195,3.0,5.0,25,-99.99,,,0.00,meteohub,2013-12-16 07:37:00,
2013-12-16 02:42:00,29.7,-1.8,31.03,SSW,195,3.0,4.0,25,-99.99,,,0.00,meteohub,2013-12-16 07:42:00,
2013-12-16 02:47:00,29.7,-1.8,31.03,SSW,196,3.0,4.0,25,-99.99,,,0.00,meteohub,2013-12-16 07:47:00,
2013-12-16 02:52:00,29.8,-1.7,31.03,SSW,195,3.0,5.0,25,-99.99,,,0.00,meteohub,2013-12-16 07:52:00,
2013-12-16 02:58:00,30.0,-1.5,31.03,SSW,195,3.0,5.0,25,-99.99,,,0.00,meteohub,2013-12-16 07:58:00,
2013-12-16 03:03:00,30.0,-1.5,31.03,SSW,195,3.0,5.0,25,-99.99,,,0.00,meteohub,2013-12-16 08:03:00,
2013-12-16 03:08:00,30.2,-1.5,31.03,SSW,196,3.0,5.0,25,-99.99,,,0.00,meteohub,2013-12-16 08:08:00,
2013-12-16 03:14:00,30.2,1.0,31.03,SSW,195,3.0,5.0,28,-99.99,,,0.00,meteohub,2013-12-16 08:14:00,
2013-12-16 03:19:00,30.4,2.7,31.03,SSW,196,3.0,5.0,30,-99.99,,,0.00,meteohub,2013-12-16 08:19:00,
2013-12-16 03:24:00,30.6,2.8,31.03,SSW,195,5.0,5.0,30,-99.99,,,0.00,meteohub,2013-12-16 08:24:00,
2013-12-16 03:29:00,30.9,3.2,31.03,SSW,195,4.0,5.0,30,-99.99,,,0.00,meteohub,2013-12-16 08:29:00,
2013-12-16 03:35:00,31.1,3.2,31.03,SSW,195,5.0,6.0,30,-99.99,,,0.00,meteohub,2013-12-16 08:35:00,
2013-12-16 03:40:00,31.1,3.2,31.03,SSW,194,6.0,6.0,30,-99.99,,,0.00,meteohub,2013-12-16 08:40:00,
2013-12-16 03:45:00,31.3,3.4,31.03,SSW,192,5.0,6.0,30,-99.99,,,0.00,meteohub,2013-12-16 08:45:00,
2013-12-16 03:50:00,31.5,2.1,31.03,South,188,4.0,8.0,28,-99.99,,,0.00,meteohub,2013-12-16 08:50:00,
2013-12-16 03:56:00,31.5,2.1,31.03,SSW,198,6.0,8.0,28,-99.99,,,0.00,meteohub,2013-12-16 08:56:00,
2013-12-16 04:01:00,31.6,2.3,31.03,SSW,192,8.0,8.0,28,-99.99,,,0.00,meteohub,2013-12-16 09:01:00,
2013-12-16 04:06:00,31.8,-1.8,31.03,SSW,195,10.0,10.0,23,-99.99,,,0.00,meteohub,2013-12-16 09:06:00,
2013-12-16 04:11:00,31.8,-1.8,31.03,South,188,9.0,14.0,23,-99.99,,,0.00,meteohub,2013-12-16 09:11:00,
2013-12-16 04:16:00,31.6,-2.0,31.03,SSW,208,9.0,14.0,23,-99.99,,,0.00,meteohub,2013-12-16 09:16:00,
2013-12-16 04:21:00,31.6,-2.0,31.03,SSW,197,13.0,15.0,23,-99.99,,,0.00,meteohub,2013-12-16 09:21:00,
2013-12-16 04:27:00,31.6,-2.0,31.03,SSW,200,11.0,15.0,23,-99.99,,,0.00,meteohub,2013-12-16 09:27:00,
2013-12-16 04:32:00,31.5,-2.0,31.03,SSW,195,11.0,13.0,23,-99.99,,,0.00,meteohub,2013-12-16 09:32:00,
2013-12-16 04:37:00,31.5,-2.0,31.03,SW,220,13.0,14.0,23,-99.99,,,0.00,meteohub,2013-12-16 09:37:00,
2013-12-16 04:42:00,31.6,-4.9,31.03,SSW,207,8.0,15.0,20,-99.99,,,0.00,meteohub,2013-12-16 09:42:00,
2013-12-16 04:47:00,31.5,-5.1,31.03,SSW,202,8.0,15.0,20,-99.99,,,0.00,meteohub,2013-12-16 09:47:00,
2013-12-16 04:52:00,31.5,-5.1,31.03,SSW,204,11.0,15.0,20,-99.99,,,0.00,meteohub,2013-12-16 09:52:00,
2013-12-16 04:57:00,31.3,-2.2,31.03,SSW,202,8.0,15.0,23,-99.99,,,0.00,meteohub,2013-12-16 09:57:00,
2013-12-16 05:02:00,31.1,-2.4,31.03,SSW,194,8.0,15.0,23,-99.99,,,0.00,meteohub,2013-12-16 10:02:00,
2013-12-16 05:07:00,31.1,-2.4,31.03,SSW,200,8.0,13.0,23,-99.99,,,0.00,meteohub,2013-12-16 10:07:00,
2013-12-16 05:13:00,31.1,-2.4,31.03,SSW,195,8.0,13.0,23,-99.99,,,0.00,meteohub,2013-12-16 10:13:00,
2013-12-16 05:18:00,31.1,-2.4,31.03,SSW,202,9.0,11.0,23,-99.99,,,0.00,meteohub,2013-12-16 10:18:00,
2013-12-16 05:23:00,31.1,-2.4,31.03,SSW,198,11.0,11.0,23,-99.99,,,0.00,meteohub,2013-12-16 10:23:00,
2013-12-16 05:29:00,31.3,-2.2,31.03,SSW,197,10.0,12.0,23,-99.99,,,0.00,meteohub,2013-12-16 10:29:00,
2013-12-16 05:34:00,31.3,-2.2,31.03,SSW,198,9.0,12.0,23,-99.99,,,0.00,meteohub,2013-12-16 10:34:00,
2013-12-16 05:39:00,31.3,-2.2,31.03,SSW,210,12.0,13.0,23,-99.99,,,0.00,meteohub,2013-12-16 10:39:00,
2013-12-16 05:44:00,31.1,-2.4,31.03,South,191,11.0,13.0,23,-99.99,,,0.00,meteohub,2013-12-16 10:44:00,
2013-12-16 05:50:00,31.1,-5.3,31.03,SSW,193,12.0,13.0,20,-99.99,,,0.00,meteohub,2013-12-16 10:50:00,
2013-12-16 05:55:00,31.1,-5.3,31.03,SSW,202,11.0,15.0,20,-99.99,,,0.00,meteohub,2013-12-16 10:55:00,
2013-12-16 06:00:00,30.9,-5.4,31.03,SSW,202,10.0,15.0,20,-99.99,,,0.00,meteohub,2013-12-16 11:00:00,
2013-12-16 06:06:00,30.7,-5.6,31.03,SSW,207,12.0,15.0,20,-99.99,,,0.00,meteohub,2013-12-16 11:06:00,
2013-12-16 06:11:00,30.7,-5.6,31.03,SSW,212,9.0,14.0,20,-99.99,,,0.00,meteohub,2013-12-16 11:11:00,
2013-12-16 06:16:00,30.6,-5.8,31.03,SSW,205,11.0,14.0,20,-99.99,,,0.00,meteohub,2013-12-16 11:16:00,
2013-12-16 06:21:00,30.6,-5.8,31.03,SSW,194,6.0,14.0,20,-99.99,,,0.00,meteohub,2013-12-16 11:21:00,
2013-12-16 06:27:00,30.6,-5.8,31.03,SW,217,8.0,17.0,20,-99.99,,,0.00,meteohub,2013-12-16 11:27:00,
2013-12-16 06:32:00,30.4,-6.0,31.03,SW,227,11.0,17.0,20,-99.99,,,0.00,meteohub,2013-12-16 11:32:00,
2013-12-16 06:37:00,30.2,-6.0,31.03,SW,216,9.0,17.0,20,-99.99,,,0.00,meteohub,2013-12-16 11:37:00,
2013-12-16 06:42:00,30.2,-8.3,31.03,SSW,204,9.0,17.0,18,-99.99,,,0.00,meteohub,2013-12-16 11:42:00,
2013-12-16 06:47:00,30.0,-8.3,31.03,SW,214,10.0,17.0,18,-99.99,,,0.00,meteohub,2013-12-16 11:47:00,
2013-12-16 06:53:00,29.8,-8.5,31.03,SSW,208,6.0,17.0,18,-99.99,,,0.00,meteohub,2013-12-16 11:53:00,
2013-12-16 06:58:00,29.7,-8.7,31.03,SSW,210,8.0,17.0,18,-99.99,,,0.00,meteohub,2013-12-16 11:58:00,
2013-12-16 07:03:00,29.5,-8.9,31.03,SSW,200,10.0,16.0,18,-99.99,,,0.00,meteohub,2013-12-16 12:03:00,
2013-12-16 07:08:00,29.3,-9.0,31.03,SSW,210,11.0,16.0,18,-99.99,,,0.00,meteohub,2013-12-16 12:08:00,
2013-12-16 07:13:00,29.3,-9.0,31.03,SW,220,12.0,15.0,18,-99.99,,,0.00,meteohub,2013-12-16 12:13:00,
2013-12-16 07:19:00,29.1,-9.0,31.03,SW,216,9.0,15.0,18,-99.99,,,0.00,meteohub,2013-12-16 12:19:00,
2013-12-16 07:24:00,29.3,-9.0,31.03,SW,221,6.0,15.0,18,-99.99,,,0.00,meteohub,2013-12-16 12:24:00,
2013-12-16 07:29:00,29.1,-12.8,31.03,SSW,211,13.0,15.0,15,-99.99,,,0.00,meteohub,2013-12-16 12:29:00,
2013-12-16 07:35:00,28.9,-13.0,31.03,SSW,196,12.0,15.0,15,-99.99,,,0.00,meteohub,2013-12-16 12:35:00,
2013-12-16 07:40:00,28.9,-15.7,31.03,SW,220,15.0,19.0,13,-99.99,,,0.00,meteohub,2013-12-16 12:40:00,
2013-12-16 07:45:00,28.9,-15.7,31.03,South,191,8.0,19.0,13,-99.99,,,0.00,meteohub,2013-12-16 12:45:00,
2013-12-16 07:50:00,28.9,-15.7,31.03,SSW,209,12.0,19.0,13,-99.99,,,0.00,meteohub,2013-12-16 12:50:00,
2013-12-16 07:56:00,28.9,-15.7,31.03,SSW,198,17.0,18.0,13,-99.99,,,0.00,meteohub,2013-12-16 12:56:00,
2013-12-16 08:01:00,29.1,-15.7,31.03,SSW,198,14.0,18.0,13,-99.99,,,0.00,meteohub,2013-12-16 13:01:00,
2013-12-16 08:06:00,28.9,-15.7,31.03,SSW,210,11.0,20.0,13,-99.99,,,0.00,meteohub,2013-12-16 13:06:00,
2013-12-16 08:11:00,28.8,-15.9,31.03,SSW,196,17.0,20.0,13,-99.99,,,0.00,meteohub,2013-12-16 13:11:00,
2013-12-16 08:17:00,28.8,-15.9,31.03,WSW,238,13.0,20.0,13,-99.99,,,0.00,meteohub,2013-12-16 13:17:00,
2013-12-16 08:22:00,28.8,-15.9,31.03,SW,214,17.0,20.0,13,-99.99,,,0.00,meteohub,2013-12-16 13:22:00,
2013-12-16 08:27:00,28.9,-15.7,31.03,SSW,198,13.0,23.0,13,-99.99,,,0.00,meteohub,2013-12-16 13:27:00,
2013-12-16 08:32:00,29.1,-15.7,31.03,SSW,202,4.0,23.0,13,-99.99,,,0.00,meteohub,2013-12-16 13:32:00,
2013-12-16 08:37:00,28.9,-15.7,31.03,SW,216,11.0,21.0,13,-99.99,,,0.00,meteohub,2013-12-16 13:37:00,
2013-12-16 08:42:00,29.3,-15.5,31.03,SSW,212,13.0,21.0,13,-99.99,,,0.00,meteohub,2013-12-16 13:42:00,
2013-12-16 08:48:00,29.5,-15.3,31.03,SSW,213,6.0,16.0,13,-99.99,,,0.00,meteohub,2013-12-16 13:48:00,
2013-12-16 08:53:00,29.7,-15.2,31.03,SSW,192,15.0,16.0,13,-99.99,,,0.00,meteohub,2013-12-16 13:53:00,
2013-12-16 08:58:00,29.8,-15.0,31.03,SW,214,15.0,24.0,13,-99.99,,,0.00,meteohub,2013-12-16 13:58:00,
2013-12-16 09:03:00,29.8,-15.0,31.03,SW,215,11.0,24.0,13,-99.99,,,0.00,meteohub,2013-12-16 14:03:00,
2013-12-16 09:09:00,30.0,-15.0,31.03,SSW,213,11.0,24.0,13,-99.99,,,0.00,meteohub,2013-12-16 14:09:00,
2013-12-16 09:14:00,29.7,-16.8,31.03,SSW,209,15.0,24.0,12,-99.99,,,0.00,meteohub,2013-12-16 14:14:00,
2013-12-16 09:19:00,30.0,-16.4,31.03,SSW,210,15.0,24.0,12,-99.99,,,0.00,meteohub,2013-12-16 14:19:00,
2013-12-16 09:24:00,30.0,-16.4,31.03,SSW,206,17.0,24.0,12,-99.99,,,0.00,meteohub,2013-12-16 14:24:00,
2013-12-16 09:30:00,29.7,-16.8,31.03,SSW,206,22.0,25.0,12,-99.99,,,0.00,meteohub,2013-12-16 14:30:00,
2013-12-16 09:35:00,30.6,-16.1,31.03,SSE,160,10.0,25.0,12,-99.99,,,0.00,meteohub,2013-12-16 14:35:00,
2013-12-16 09:40:00,30.7,-15.9,31.03,SSW,209,16.0,25.0,12,-99.99,,,0.00,meteohub,2013-12-16 14:40:00,
2013-12-16 09:46:00,31.5,-15.3,31.03,SSW,197,14.0,24.0,12,-99.99,,,0.00,meteohub,2013-12-16 14:46:00,
2013-12-16 09:51:00,32.0,-15.0,31.03,SSW,200,13.0,24.0,12,-99.99,,,0.00,meteohub,2013-12-16 14:51:00,
2013-12-16 09:56:00,31.5,-15.3,31.03,SSW,202,25.0,25.0,12,-99.99,,,0.00,meteohub,2013-12-16 14:56:00,
2013-12-16 10:01:00,30.6,-16.1,31.03,SSW,210,17.0,22.0,12,-99.99,,,0.00,meteohub,2013-12-16 15:01:00,
2013-12-16 10:06:00,31.1,-15.7,31.03,SSW,205,13.0,25.0,12,-99.99,,,0.00,meteohub,2013-12-16 15:06:00,
2013-12-16 10:12:00,32.2,-14.8,31.03,SSW,207,13.0,25.0,12,-99.99,,,0.00,meteohub,2013-12-16 15:12:00,
2013-12-16 10:17:00,32.7,-14.3,31.03,SW,219,13.0,20.0,12,-99.99,,,0.00,meteohub,2013-12-16 15:17:00,
2013-12-16 10:22:00,32.4,-14.6,31.03,SSW,201,16.0,20.0,12,-99.99,,,0.00,meteohub,2013-12-16 15:22:00,
2013-12-16 10:27:00,32.5,-14.4,31.03,SSW,199,14.0,22.0,12,-99.99,,,0.00,meteohub,2013-12-16 15:27:00,
2013-12-16 10:32:00,32.7,-14.3,31.03,SW,220,6.0,22.0,12,-99.99,,,0.00,meteohub,2013-12-16 15:32:00,
2013-12-16 10:37:00,32.7,-14.3,31.03,SW,214,11.0,24.0,12,-99.99,,,0.00,meteohub,2013-12-16 15:37:00,
2013-12-16 10:42:00,32.9,-14.3,31.03,SSW,194,11.0,24.0,12,-99.99,,,0.00,meteohub,2013-12-16 15:42:00,
2013-12-16 10:48:00,32.5,-14.4,31.03,SSW,196,22.0,22.0,12,-99.99,,,0.00,meteohub,2013-12-16 15:48:00,
2013-12-16 10:53:00,32.5,-14.4,31.03,SSW,202,24.0,24.0,12,-99.99,,,0.00,meteohub,2013-12-16 15:53:00,
2013-12-16 10:58:00,32.7,-14.3,31.03,SW,214,12.0,23.0,12,-99.99,,,0.00,meteohub,2013-12-16 15:58:00,
2013-12-16 11:03:00,32.7,-14.3,31.03,SW,215,8.0,23.0,12,-99.99,,,0.00,meteohub,2013-12-16 16:03:00,
2013-12-16 11:08:00,32.5,-14.4,31.03,SSW,196,15.0,24.0,12,-99.99,,,0.00,meteohub,2013-12-16 16:08:00,
2013-12-16 11:14:00,32.2,-14.8,31.03,WSW,241,12.0,22.0,12,-99.99,,,0.00,meteohub,2013-12-16 16:14:00,
2013-12-16 11:19:00,32.4,-14.6,31.03,SW,214,11.0,22.0,12,-99.99,,,0.00,meteohub,2013-12-16 16:19:00,
2013-12-16 11:24:00,32.7,-14.3,31.03,SW,224,8.0,22.0,12,-99.99,,,0.00,meteohub,2013-12-16 16:24:00,
2013-12-16 11:29:00,32.9,-14.3,31.03,SSE,166,14.0,17.0,12,-99.99,,,0.00,meteohub,2013-12-16 16:29:00,
2013-12-16 11:35:00,32.7,-14.3,31.03,South,189,17.0,17.0,12,-99.99,,,0.00,meteohub,2013-12-16 16:35:00,
2013-12-16 11:40:00,32.5,-14.4,31.03,SSW,201,10.0,17.0,12,-99.99,,,0.00,meteohub,2013-12-16 16:40:00,
2013-12-16 11:45:00,32.5,-14.4,31.03,SW,220,15.0,23.0,12,-99.99,,,0.00,meteohub,2013-12-16 16:45:00,
2013-12-16 11:50:00,32.5,-14.4,31.03,SSW,198,11.0,23.0,12,-99.99,,,0.00,meteohub,2013-12-16 16:50:00,
2013-12-16 11:56:00,33.1,-14.1,31.03,WSW,241,10.0,27.0,12,-99.99,,,0.00,meteohub,2013-12-16 16:56:00,
2013-12-16 12:01:00,33.3,-13.9,31.03,SW,232,13.0,27.0,12,-99.99,,,0.00,meteohub,2013-12-16 17:01:00,
2013-12-16 12:06:00,33.6,-13.5,31.03,South,182,19.0,27.0,12,-99.99,,,0.00,meteohub,2013-12-16 17:06:00,
2013-12-16 12:11:00,33.3,-13.9,31.03,SSW,211,12.0,18.0,12,-99.99,,,0.00,meteohub,2013-12-16 17:11:00,
2013-12-16 12:16:00,33.6,-13.5,31.03,South,190,19.0,23.0,12,-99.99,,,0.00,meteohub,2013-12-16 17:16:00,
2013-12-16 12:22:00,32.7,-14.3,31.03,SW,230,11.0,23.0,12,-99.99,,,0.00,meteohub,2013-12-16 17:22:00,
2013-12-16 12:27:00,33.6,-13.5,31.03,South,178,13.0,23.0,12,-99.99,,,0.00,meteohub,2013-12-16 17:27:00,
2013-12-16 12:32:00,33.4,-13.7,31.03,SSW,204,13.0,23.0,12,-99.99,,,0.00,meteohub,2013-12-16 17:32:00,
2013-12-16 12:37:00,33.3,-13.9,-100.00,SSW,204,17.0,23.0,12,-99.99,,,0.00,meteohub,2013-12-16 17:37:00,
2013-12-16 12:43:00,33.4,-13.7,31.03,SSW,200,15.0,20.0,12,-99.99,,,0.00,meteohub,2013-12-16 17:43:00,
2013-12-16 12:48:00,34.0,-15.0,31.03,SSW,196,9.0,20.0,11,-99.99,,,0.00,meteohub,2013-12-16 17:48:00,
2013-12-16 12:53:00,34.0,-15.0,-100.00,SW,235,8.0,20.0,11,-99.99,,,0.00,meteohub,2013-12-16 17:53:00,
2013-12-16 12:59:00,34.0,-15.0,-100.00,SSW,197,11.0,20.0,11,-99.99,,,0.00,meteohub,2013-12-16 17:59:00,
2013-12-16 13:04:00,34.3,-14.8,-100.00,SW,230,11.0,19.0,11,-99.99,,,0.00,meteohub,2013-12-16 18:04:00,
2013-12-16 13:09:00,34.3,-14.8,-100.00,SW,221,11.0,19.0,11,-99.99,,,0.00,meteohub,2013-12-16 18:09:00,
2013-12-16 13:14:00,34.5,-14.6,-100.00,South,191,13.0,18.0,11,-99.99,,,0.00,meteohub,2013-12-16 18:14:00,
2013-12-16 13:20:00,34.0,-15.0,-100.00,WSW,254,14.0,18.0,11,-99.99,,,0.00,meteohub,2013-12-16 18:20:00,
2013-12-16 13:25:00,33.8,-15.2,-100.00,South,190,17.0,17.0,11,-99.99,,,0.00,meteohub,2013-12-16 18:25:00,
2013-12-16 13:30:00,34.0,-15.0,-100.00,SW,224,11.0,16.0,11,-99.99,,,0.00,meteohub,2013-12-16 18:30:00,
2013-12-16 13:35:00,33.6,-13.5,-100.00,SW,222,11.0,16.0,12,-99.99,,,0.00,meteohub,2013-12-16 18:35:00,
2013-12-16 13:40:00,33.6,-13.5,-100.00,South,187,10.0,17.0,12,-99.99,,,0.00,meteohub,2013-12-16 18:40:00,
2013-12-16 13:45:00,33.8,-15.2,31.03,SW,234,9.0,19.0,11,-99.99,,,0.00,meteohub,2013-12-16 18:45:00,
2013-12-16 13:51:00,33.3,-13.9,-100.00,SW,215,10.0,19.0,12,-99.99,,,0.00,meteohub,2013-12-16 18:51:00,
2013-12-16 13:56:00,33.1,-14.1,31.03,SSW,199,11.0,17.0,12,-99.99,,,0.00,meteohub,2013-12-16 18:56:00,
2013-12-16 14:02:00,33.8,-15.2,31.03,SSW,207,13.0,17.0,11,-99.99,,,0.00,meteohub,2013-12-16 19:02:00,
2013-12-16 14:07:00,33.8,-15.2,31.03,SSW,196,14.0,17.0,11,-99.99,,,0.00,meteohub,2013-12-16 19:07:00,
2013-12-16 14:12:00,33.3,-13.9,-100.00,SSW,199,13.0,17.0,12,-99.99,,,0.00,meteohub,2013-12-16 19:12:00,
2013-12-16 14:17:00,34.0,-15.0,31.03,SSW,204,11.0,20.0,11,-99.99,,,0.00,meteohub,2013-12-16 19:17:00,
2013-12-16 14:22:00,33.8,-15.2,-100.00,SW,228,9.0,20.0,11,-99.99,,,0.00,meteohub,2013-12-16 19:22:00,
2013-12-16 14:27:00,33.3,-13.9,-100.00,SW,215,11.0,20.0,12,-99.99,,,0.00,meteohub,2013-12-16 19:27:00,
2013-12-16 14:32:00,33.4,-13.7,31.03,South,189,13.0,20.0,12,-99.99,,,0.00,meteohub,2013-12-16 19:32:00,
2013-12-16 14:37:00,33.8,-15.2,31.03,SSW,195,15.0,15.0,11,-99.99,,,0.00,meteohub,2013-12-16 19:37:00,
2013-12-16 14:42:00,34.0,-15.0,31.03,SSW,203,9.0,17.0,11,-99.99,,,0.00,meteohub,2013-12-16 19:42:00,
2013-12-16 14:47:00,33.3,-13.9,31.03,South,187,8.0,17.0,12,-99.99,,,0.00,meteohub,2013-12-16 19:47:00,
2013-12-16 14:53:00,33.4,-13.7,31.03,South,185,13.0,15.0,12,-99.99,,,0.00,meteohub,2013-12-16 19:53:00,
2013-12-16 14:58:00,33.1,-14.1,-100.00,SSW,212,11.0,15.0,12,-99.99,,,0.00,meteohub,2013-12-16 19:58:00,
2013-12-16 15:03:00,32.7,-14.3,31.03,SSW,193,6.0,16.0,12,-99.99,,,0.00,meteohub,2013-12-16 20:03:00,
2013-12-16 15:09:00,33.1,-14.1,31.03,SSW,192,11.0,16.0,12,-99.99,,,0.00,meteohub,2013-12-16 20:09:00,
2013-12-16 15:14:00,32.5,-14.4,31.03,SSW,204,11.0,17.0,12,-99.99,,,0.00,meteohub,2013-12-16 20:14:00,
2013-12-16 15:19:00,32.4,-14.6,31.03,SSW,206,9.0,17.0,12,-99.99,,,0.00,meteohub,2013-12-16 20:19:00,
2013-12-16 15:24:00,32.4,-14.6,31.03,SSW,211,17.0,17.0,12,-99.99,,,0.00,meteohub,2013-12-16 20:24:00,
2013-12-16 15:29:00,31.8,-15.0,31.03,South,187,13.0,17.0,12,-99.99,,,0.00,meteohub,2013-12-16 20:29:00,
2013-12-16 15:34:00,31.3,-15.5,31.03,SSW,211,11.0,18.0,12,-99.99,,,0.00,meteohub,2013-12-16 20:34:00,
2013-12-16 15:39:00,31.3,-15.5,31.03,SSW,195,9.0,18.0,12,-99.99,,,0.00,meteohub,2013-12-16 20:39:00,
2013-12-16 15:44:00,31.3,-15.5,31.03,South,183,5.0,15.0,12,-99.99,,,0.00,meteohub,2013-12-16 20:44:00,
2013-12-16 15:50:00,30.4,-16.2,31.03,South,191,12.0,17.0,12,-99.99,,,0.00,meteohub,2013-12-16 20:50:00,
2013-12-16 15:55:00,30.4,-16.2,-100.00,SSW,194,8.0,17.0,12,-99.99,,,0.00,meteohub,2013-12-16 20:55:00,
2013-12-16 16:00:00,29.7,-16.8,-100.00,SW,221,8.0,17.0,12,-99.99,,,0.00,meteohub,2013-12-16 21:00:00,
2013-12-16 16:05:00,29.5,-17.0,31.03,South,188,12.0,13.0,12,-99.99,,,0.00,meteohub,2013-12-16 21:05:00,
2013-12-16 16:10:00,29.3,-17.1,31.03,SSW,205,11.0,15.0,12,-99.99,,,0.00,meteohub,2013-12-16 21:10:00,
2013-12-16 16:16:00,29.1,-17.1,31.03,SSW,211,11.0,16.0,12,-99.99,,,0.00,meteohub,2013-12-16 21:16:00,
2013-12-16 16:21:00,28.9,-17.3,31.03,SSW,195,13.0,16.0,12,-99.99,,,0.00,meteohub,2013-12-16 21:21:00,
2013-12-16 16:26:00,28.8,-17.5,-100.00,SSW,195,13.0,16.0,12,-99.99,,,0.00,meteohub,2013-12-16 21:26:00,
2013-12-16 16:31:00,28.6,-17.7,-100.00,SSW,211,8.0,16.0,12,-99.99,,,0.00,meteohub,2013-12-16 21:31:00,
2013-12-16 16:36:00,28.6,-17.7,-100.00,South,191,8.0,13.0,12,-99.99,,,0.00,meteohub,2013-12-16 21:36:00,
2013-12-16 16:41:00,28.2,-17.9,-100.00,SSW,206,9.0,13.0,12,-99.99,,,0.00,meteohub,2013-12-16 21:41:00,
2013-12-16 16:47:00,28.0,-18.0,31.03,SSW,198,8.0,11.0,12,-99.99,,,0.00,meteohub,2013-12-16 21:47:00,
2013-12-16 16:52:00,28.0,-18.0,-100.00,SW,216,6.0,12.0,12,-99.99,,,0.00,meteohub,2013-12-16 21:52:00,
2013-12-16 16:57:00,27.9,-18.2,-100.00,SSW,208,6.0,12.0,12,-99.99,,,0.00,meteohub,2013-12-16 21:57:00,
2013-12-16 17:02:00,27.9,-18.2,-100.00,SSW,204,8.0,12.0,12,-99.99,,,0.00,meteohub,2013-12-16 22:02:00,
2013-12-16 17:07:00,27.7,-18.4,-100.00,SW,220,10.0,12.0,12,-99.99,,,0.00,meteohub,2013-12-16 22:07:00,
2013-12-16 17:12:00,27.7,-18.4,31.03,SSW,194,8.0,12.0,12,-99.99,,,0.00,meteohub,2013-12-16 22:12:00,
2013-12-16 17:17:00,27.5,-18.6,31.03,SSW,201,13.0,13.0,12,-99.99,,,0.00,meteohub,2013-12-16 22:17:00,
2013-12-16 17:23:00,27.5,-18.6,31.03,SSW,207,8.0,13.0,12,-99.99,,,0.00,meteohub,2013-12-16 22:23:00,
2013-12-16 17:28:00,27.3,-18.6,-100.00,SSW,200,9.0,13.0,12,-99.99,,,0.00,meteohub,2013-12-16 22:28:00,
2013-12-16 17:33:00,27.1,-18.8,31.03,SSW,197,6.0,13.0,12,-99.99,,,0.00,meteohub,2013-12-16 22:33:00,
2013-12-16 17:39:00,27.1,-18.8,31.03,SSW,202,6.0,12.0,12,-99.99,,,0.00,meteohub,2013-12-16 22:39:00,
2013-12-16 17:44:00,27.0,-18.9,31.03,SSW,200,11.0,12.0,12,-99.99,,,0.00,meteohub,2013-12-16 22:44:00,
2013-12-16 17:49:00,27.0,-18.9,31.03,SSW,196,8.0,11.0,12,-99.99,,,0.00,meteohub,2013-12-16 22:49:00,
2013-12-16 17:54:00,26.8,-19.1,-100.00,SSW,197,10.0,11.0,12,-99.99,,,0.00,meteohub,2013-12-16 22:54:00,
2013-12-16 17:59:00,26.8,-19.1,-100.00,SSW,206,8.0,11.0,12,-99.99,,,0.00,meteohub,2013-12-16 22:59:00,
2013-12-16 18:05:00,26.6,-17.7,-100.00,SSW,193,7.0,11.0,13,-99.99,,,0.00,meteohub,2013-12-16 23:05:00,
2013-12-16 18:10:00,26.4,-17.9,31.03,SSW,204,8.0,11.0,13,-99.99,,,0.00,meteohub,2013-12-16 23:10:00,
2013-12-16 18:15:00,26.4,-17.9,31.03,SSW,208,8.0,10.0,13,-99.99,,,0.00,meteohub,2013-12-16 23:15:00,
2013-12-16 18:20:00,26.2,-17.9,31.03,SSW,205,5.0,9.0,13,-99.99,,,0.00,meteohub,2013-12-16 23:20:00,
2013-12-16 18:25:00,26.2,-17.9,31.03,SSW,211,6.0,9.0,13,-99.99,,,0.00,meteohub,2013-12-16 23:25:00,
2013-12-16 18:30:00,26.2,-17.9,-100.00,SSW,203,5.0,9.0,13,-99.99,,,0.00,meteohub,2013-12-16 23:30:00,
2013-12-16 18:36:00,26.1,-18.0,31.03,SSW,207,6.0,8.0,13,-99.99,,,0.00,meteohub,2013-12-16 23:36:00,
2013-12-16 18:41:00,25.9,-18.2,-100.00,SSW,211,5.0,8.0,13,-99.99,,,0.00,meteohub,2013-12-16 23:41:00,
2013-12-16 18:46:00,25.7,-18.4,31.03,SSW,205,5.0,7.0,13,-99.99,,,0.00,meteohub,2013-12-16 23:46:00,
2013-12-16 18:51:00,25.5,-18.6,31.03,SW,216,4.0,7.0,13,-99.99,,,0.00,meteohub,2013-12-16 23:51:00,
2013-12-16 18:57:00,25.3,-18.8,31.03,SW,214,4.0,6.0,13,-99.99,,,0.00,meteohub,2013-12-16 23:57:00,
2013-12-16 19:02:00,25.2,-18.8,31.03,SW,214,4.0,7.0,13,-99.99,,,0.00,meteohub,2013-12-17 00:02:00,
2013-12-16 19:07:00,25.2,-18.8,31.03,SSW,211,4.0,7.0,13,-99.99,,,0.00,meteohub,2013-12-17 00:07:00,
2013-12-16 19:12:00,24.8,-19.1,31.03,SW,221,4.0,6.0,13,-99.99,,,0.00,meteohub,2013-12-17 00:12:00,
2013-12-16 19:17:00,24.8,-19.1,31.03,SW,220,5.0,6.0,13,-99.99,,,0.00,meteohub,2013-12-17 00:17:00,
2013-12-16 19:22:00,24.8,-19.1,31.03,SSW,201,5.0,6.0,13,-99.99,,,0.00,meteohub,2013-12-17 00:22:00,
2013-12-16 19:27:00,24.8,-19.1,31.03,SSW,206,8.0,8.0,13,-99.99,,,0.00,meteohub,2013-12-17 00:27:00,
2013-12-16 19:32:00,24.8,-19.1,31.03,SSW,205,5.0,9.0,13,-99.99,,,0.00,meteohub,2013-12-17 00:32:00,
2013-12-16 19:37:00,24.6,-19.3,31.03,SW,214,6.0,9.0,13,-99.99,,,0.00,meteohub,2013-12-17 00:37:00,
2013-12-16 19:42:00,24.8,-19.1,31.03,SSW,202,9.0,11.0,13,-99.99,,,0.00,meteohub,2013-12-17 00:42:00,
2013-12-16 19:47:00,25.0,-18.9,31.03,SSW,209,11.0,11.0,13,-99.99,,,0.00,meteohub,2013-12-17 00:47:00,
2013-12-16 19:52:00,25.0,-18.9,31.03,SW,229,12.0,14.0,13,-99.99,,,0.00,meteohub,2013-12-17 00:52:00,
2013-12-16 19:58:00,25.2,-18.8,31.03,SW,216,11.0,14.0,13,-99.99,,,0.00,meteohub,2013-12-17 00:58:00,
2013-12-16 20:03:00,25.2,-18.8,31.03,SSW,200,8.0,15.0,13,-99.99,,,0.00,meteohub,2013-12-17 01:03:00,
2013-12-16 20:08:00,25.2,-18.8,31.03,SSW,210,6.0,15.0,13,-99.99,,,0.00,meteohub,2013-12-17 01:08:00,
2013-12-16 20:13:00,25.2,-18.8,31.03,SW,233,6.0,15.0,13,-99.99,,,0.00,meteohub,2013-12-17 01:13:00,
2013-12-16 20:19:00,25.2,-18.8,31.03,SSW,208,8.0,15.0,13,-99.99,,,0.00,meteohub,2013-12-17 01:19:00,
2013-12-16 20:24:00,25.0,-18.9,31.03,SW,231,8.0,13.0,13,-99.99,,,0.00,meteohub,2013-12-17 01:24:00,
2013-12-16 20:28:00,24.8,-19.1,31.03,SW,236,8.0,13.0,13,-99.99,,,0.00,meteohub,2013-12-17 01:28:00,
2013-12-16 20:34:00,24.8,-19.1,31.03,SSW,201,6.0,12.0,13,-99.99,,,0.00,meteohub,2013-12-17 01:34:00,
2013-12-16 20:39:00,24.8,-19.1,31.03,South,191,9.0,12.0,13,-99.99,,,0.00,meteohub,2013-12-17 01:39:00,
2013-12-16 20:44:00,24.8,-19.1,31.03,SW,216,12.0,13.0,13,-99.99,,,0.00,meteohub,2013-12-17 01:44:00,
2013-12-16 20:49:00,24.6,-19.3,31.03,SSW,194,10.0,13.0,13,-99.99,,,0.00,meteohub,2013-12-17 01:49:00,
2013-12-16 20:54:00,24.6,-19.3,31.03,SSW,205,10.0,13.0,13,-99.99,,,0.00,meteohub,2013-12-17 01:54:00,
2013-12-16 20:59:00,24.4,-19.5,31.03,SSW,195,10.0,13.0,13,-99.99,,,0.00,meteohub,2013-12-17 01:59:00,
2013-12-16 21:05:00,24.4,-19.5,31.03,SSW,198,8.0,13.0,13,-99.99,,,0.00,meteohub,2013-12-17 02:05:00,
2013-12-16 21:10:00,24.3,-19.5,31.03,SW,221,8.0,13.0,13,-99.99,,,0.00,meteohub,2013-12-17 02:10:00,
2013-12-16 21:15:00,24.4,-19.5,31.03,SSW,210,6.0,13.0,13,-99.99,,,0.00,meteohub,2013-12-17 02:15:00,
2013-12-16 21:20:00,24.4,-19.5,31.03,SW,227,8.0,11.0,13,-99.99,,,0.00,meteohub,2013-12-17 02:20:00,
2013-12-16 21:26:00,24.4,-19.5,31.03,SSW,213,11.0,11.0,13,-99.99,,,0.00,meteohub,2013-12-17 02:26:00,
2013-12-16 21:31:00,24.4,-19.5,31.03,SSW,207,8.0,11.0,13,-99.99,,,0.00,meteohub,2013-12-17 02:31:00,
2013-12-16 21:36:00,24.4,-19.5,31.03,SW,218,8.0,15.0,13,-99.99,,,0.00,meteohub,2013-12-17 02:36:00,
2013-12-16 21:41:00,24.4,-19.5,31.03,SSW,210,6.0,15.0,13,-99.99,,,0.00,meteohub,2013-12-17 02:41:00,
2013-12-16 21:46:00,24.4,-19.5,31.03,SSW,210,8.0,14.0,13,-99.99,,,0.00,meteohub,2013-12-17 02:46:00,
2013-12-16 21:52:00,24.4,-19.5,31.03,SSW,198,8.0,12.0,13,-99.99,,,0.00,meteohub,2013-12-17 02:52:00,
2013-12-16 21:57:00,24.3,-19.5,31.03,SSW,203,8.0,12.0,13,-99.99,,,0.00,meteohub,2013-12-17 02:57:00,
2013-12-16 22:02:00,24.3,-19.5,31.03,SW,235,5.0,13.0,13,-99.99,,,0.00,meteohub,2013-12-17 03:02:00,
2013-12-16 22:07:00,24.3,-19.5,31.03,SSW,203,6.0,13.0,13,-99.99,,,0.00,meteohub,2013-12-17 03:07:00,
2013-12-16 22:12:00,24.1,-19.7,31.03,SSW,200,8.0,13.0,13,-99.99,,,0.00,meteohub,2013-12-17 03:12:00,
2013-12-16 22:17:00,24.1,-19.7,31.03,SW,227,6.0,10.0,13,-99.99,,,0.00,meteohub,2013-12-17 03:17:00,
2013-12-16 22:23:00,23.9,-19.8,31.03,SW,234,6.0,11.0,13,-99.99,,,0.00,meteohub,2013-12-17 03:23:00,
2013-12-16 22:28:00,23.9,-19.8,31.03,SW,214,5.0,11.0,13,-99.99,,,0.00,meteohub,2013-12-17 03:28:00,
2013-12-16 22:33:00,23.7,-20.0,31.03,SSW,212,11.0,11.0,13,-99.99,,,0.00,meteohub,2013-12-17 03:33:00,
2013-12-16 22:39:00,23.5,-20.2,31.03,SSW,207,8.0,10.0,13,-99.99,,,0.00,meteohub,2013-12-17 03:39:00,
2013-12-16 22:44:00,23.5,-20.2,31.03,SSW,211,7.0,11.0,13,-99.99,,,0.00,meteohub,2013-12-17 03:44:00,
2013-12-16 22:49:00,23.4,-20.2,31.03,SSW,210,9.0,11.0,13,-99.99,,,0.00,meteohub,2013-12-17 03:49:00,
2013-12-16 22:54:00,23.4,-20.2,31.03,SSW,206,8.0,11.0,13,-99.99,,,0.00,meteohub,2013-12-17 03:54:00,
2013-12-16 23:00:00,23.4,-20.2,31.03,SSW,206,6.0,11.0,13,-99.99,,,0.00,meteohub,2013-12-17 04:00:00,
2013-12-16 23:05:00,23.2,-20.4,31.03,SSW,206,5.0,11.0,13,-99.99,,,0.00,meteohub,2013-12-17 04:05:00,
2013-12-16 23:10:00,23.0,-19.1,31.03,SSW,208,4.0,9.0,14,-99.99,,,0.00,meteohub,2013-12-17 04:10:00,
2013-12-16 23:15:00,22.8,-19.3,31.03,SW,222,8.0,9.0,14,-99.99,,,0.00,meteohub,2013-12-17 04:15:00,
2013-12-16 23:21:00,22.6,-19.5,31.03,SSW,211,6.0,8.0,14,-99.99,,,0.00,meteohub,2013-12-17 04:21:00,
2013-12-16 23:26:00,22.6,-19.5,31.03,SSW,212,6.0,8.0,14,-99.99,,,0.00,meteohub,2013-12-17 04:26:00,
2013-12-16 23:31:00,22.3,-19.7,31.03,SSW,195,5.0,8.0,14,-99.99,,,0.00,meteohub,2013-12-17 04:31:00,
2013-12-16 23:36:00,22.3,-19.7,31.03,SW,216,5.0,8.0,14,-99.99,,,0.00,meteohub,2013-12-17 04:36:00,
2013-12-16 23:42:00,22.3,-19.7,31.03,SSW,211,6.0,8.0,14,-99.99,,,0.00,meteohub,2013-12-17 04:42:00,
2013-12-16 23:47:00,22.3,-19.7,31.03,SSW,206,8.0,9.0,14,-99.99,,,0.00,meteohub,2013-12-17 04:47:00,
2013-12-16 23:52:00,22.3,-19.7,31.03,SSW,209,8.0,9.0,14,-99.99,,,0.00,meteohub,2013-12-17 04:52:00,
2013-12-16 23:57:00,22.1,-19.8,31.03,SSW,196,8.0,9.0,14,-99.99,,,0.00,meteohub,2013-12-17 04:57:00,